Location: Aulnoy
(48.8410°N, 3.0967°E)
Time: 00:10:23
(UTC+00:00)

Cosmos 1400 Rocket - Pass Details

Date: 09 February 2023
Orbit: 515 x 557 km, 81.2° (Epoch: 01 April)

Event Time Altitude Azimuth Distance (km) Brightness Sun altitude
Rises 18:30:14 0° 163° (SSE) 2,657 6.2 -15.6°
Reaches altitude 10° 18:32:33 10° 152° (SSE) 1,781 5.2 -15.9°
Enters shadow 18:33:57 18° 137° (SE) 1,336 4.4 -16.2°
